| time (UTC) | temp C | wind direction | speed KPH | gust KPH | rain 1hr cm | rain 24hr cm | rain mn cm | humidity % | barometer mb |
| 20260508062142 | 12 | 331 | 1.6 | 6.4 | 0.00 | 0.00 | 0.00 | 90 | 1011.6 |
| 20260508061636 | 12 | 331 | 1.6 | 4.8 | 0.00 | 0.00 | 0.00 | 90 | 1011.6 |
| 20260508061130 | 12 | 331 | 0.0 | 4.8 | 0.00 | 0.00 | 0.00 | 90 | 1011.6 |
| 20260508060630 | 12 | 331 | 0.0 | 3.2 | 0.00 | 0.00 | 0.00 | 90 | 1011.6 |
| 20260508060127 | 12 | 331 | 0.0 | 3.2 | 0.00 | 0.00 | 0.00 | 90 | 1011.6 |
| 20260508055628 | 12 | 331 | 0.0 | 3.2 | 0.00 | 0.00 | 0.00 | 90 | 1011.6 |
| 20260508055128 | 13 | 331 | 0.0 | 3.2 | 0.00 | 0.00 | 0.00 | 89 | 1011.6 |
| 20260508054624 | 13 | 331 | 0.0 | 3.2 | 0.00 | 0.00 | 0.00 | 89 | 1011.6 |
| 20260508054124 | 13 | 331 | 0.0 | 1.6 | 0.00 | 0.00 | 0.00 | 90 | 1011.6 |
| 20260508053621 | 13 | 331 | 0.0 | 3.2 | 0.00 | 0.00 | 0.00 | 90 | 1011.6 |
| 20260508052117 | 13 | 331 | 0.0 | 4.8 | 0.00 | 0.00 | 0.00 | 89 | 1011.6 |
| 20260508051617 | 13 | 331 | 1.6 | 4.8 | 0.00 | 0.00 | 0.00 | 89 | 1011.6 |
| 20260508051114 | 13 | 331 | 1.6 | 4.8 | 0.00 | 0.00 | 0.00 | 89 | 1011.7 |
| 20260508050613 | 13 | 331 | 1.6 | 4.8 | 0.00 | 0.00 | 0.00 | 89 | 1011.7 |
| 20260508050112 | 13 | 331 | 1.6 | 4.8 | 0.00 | 0.00 | 0.00 | 89 | 1011.7 |
| 20260508045609 | 13 | 331 | 1.6 | 4.8 | 0.00 | 0.00 | 0.00 | 89 | 1011.6 |
| 20260508045109 | 13 | 331 | 0.0 | 3.2 | 0.00 | 0.00 | 0.00 | 89 | 1011.6 |
| 20260508044607 | 13 | 331 | 1.6 | 3.2 | 0.00 | 0.00 | 0.00 | 89 | 1011.6 |
| 20260508044104 | 13 | 331 | 1.6 | 3.2 | 0.00 | 0.00 | 0.00 | 89 | 1011.6 |
| 20260508043559 | 13 | 331 | 1.6 | 4.8 | 0.00 | 0.00 | 0.00 | 89 | 1011.6 |
| 20260508043105 | 13 | 331 | 1.6 | 4.8 | 0.00 | 0.00 | 0.00 | 89 | 1011.6 |
| 20260508042600 | 13 | 331 | 1.6 | 3.2 | 0.00 | 0.00 | 0.00 | 89 | 1011.5 |
| 20260508042055 | 13 | 331 | 1.6 | 4.8 | 0.00 | 0.00 | 0.00 | 89 | 1011.5 |
| 20260508041548 | 13 | 331 | 1.6 | 4.8 | 0.00 | 0.00 | 0.00 | 89 | 1011.5 |
| 20260508041044 | 13 | 331 | 1.6 | 4.8 | 0.00 | 0.00 | 0.00 | 89 | 1011.2 |
| 20260508040044 | 13 | 334 | 3.2 | 9.7 | 0.00 | 0.00 | 0.00 | 89 | 1011.2 |
| 20260508035541 | 13 | 322 | 3.2 | 9.7 | 0.00 | 0.00 | 0.00 | 89 | 1011.3 |
| 20260508035048 | 13 | 9 | 3.2 | 9.7 | 0.00 | 0.00 | 0.00 | 89 | 1011.3 |
| 20260508034537 | 13 | 279 | 3.2 | 9.7 | 0.00 | 0.00 | 0.00 | 89 | 1011.3 |
| 20260508034036 | 13 | 296 | 1.6 | 9.7 | 0.00 | 0.00 | 0.00 | 89 | 1011.1 |
| 20260508033531 | 13 | 294 | 1.6 | 11.3 | 0.00 | 0.00 | 0.00 | 89 | 1011.1 |
| 20260508032526 | 13 | 277 | 3.2 | 9.7 | 0.00 | 0.00 | 0.00 | 88 | 1011.0 |
| 20260508032025 | 13 | 321 | 4.8 | 11.3 | 0.00 | 0.00 | 0.00 | 88 | 1011.0 |
| 20260508031523 | 13 | 351 | 4.8 | 11.3 | 0.00 | 0.00 | 0.00 | 88 | 1011.0 |
| 20260508031023 | 13 | 343 | 4.8 | 14.5 | 0.00 | 0.00 | 0.00 | 88 | 1010.8 |
| 20260508030522 | 13 | 298 | 4.8 | 14.5 | 0.00 | 0.00 | 0.00 | 88 | 1010.8 |
| 20260508030020 | 13 | 281 | 6.4 | 12.9 | 0.00 | 0.00 | 0.00 | 87 | 1010.8 |
| 20260508025524 | 13 | 298 | 6.4 | 14.5 | 0.00 | 0.00 | 0.00 | 87 | 1010.7 |
| 20260508025026 | 13 | 323 | 8.0 | 14.5 | 0.00 | 0.00 | 0.00 | 87 | 1010.7 |
| 20260508024519 | 13 | 331 | 6.4 | 12.9 | 0.00 | 0.00 | 0.00 | 86 | 1010.7 |
| 20260508024014 | 13 | 344 | 6.4 | 12.9 | 0.00 | 0.00 | 0.00 | 86 | 1010.8 |
| 20260508023514 | 13 | 310 | 8.0 | 19.3 | 0.00 | 0.00 | 0.00 | 86 | 1010.8 |
| 20260508023014 | 13 | 324 | 8.0 | 19.3 | 0.00 | 0.00 | 0.00 | 85 | 1010.8 |
| 20260508022012 | 14 | 330 | 6.4 | 14.5 | 0.00 | 0.00 | 0.00 | 83 | 1010.7 |
| 20260508021008 | 15 | 348 | 6.4 | 14.5 | 0.00 | 0.00 | 0.00 | 81 | 1010.7 |
| 20260508020509 | 15 | 0 | 6.4 | 16.1 | 0.00 | 0.00 | 0.00 | 81 | 1010.7 |
| 20260508015502 | 15 | 326 | 6.4 | 16.1 | 0.00 | 0.00 | 0.00 | 80 | 1010.6 |
| 20260508015002 | 15 | 337 | 6.4 | 14.5 | 0.00 | 0.00 | 0.00 | 80 | 1010.6 |
| 20260508014500 | 16 | 345 | 6.4 | 14.5 | 0.00 | 0.00 | 0.00 | 79 | 1010.6 |
| 20260508014001 | 16 | 321 | 8.0 | 14.5 | 0.00 | 0.00 | 0.00 | 78 | 1010.6 |
| 20260508013455 | 16 | 0 | 8.0 | 16.1 | 0.00 | 0.00 | 0.00 | 78 | 1010.6 |
| 20260508012952 | 16 | 321 | 8.0 | 16.1 | 0.00 | 0.00 | 0.00 | 78 | 1010.6 |
| 20260508012452 | 16 | 309 | 9.7 | 25.7 | 0.00 | 0.00 | 0.00 | 77 | 1010.5 |
| 20260508011951 | 16 | 323 | 8.0 | 25.7 | 0.00 | 0.00 | 0.00 | 76 | 1010.5 |
| 20260508011449 | 17 | 297 | 8.0 | 17.7 | 0.00 | 0.00 | 0.00 | 75 | 1010.5 |
| 20260508010947 | 17 | 298 | 8.0 | 22.5 | 0.00 | 0.00 | 0.00 | 75 | 1010.2 |
| 20260508010451 | 17 | 311 | 8.0 | 22.5 | 0.00 | 0.00 | 0.00 | 75 | 1010.2 |
| 20260508005947 | 17 | 334 | 8.0 | 20.9 | 0.00 | 0.00 | 0.00 | 74 | 1010.2 |
| 20260508005446 | 17 | 336 | 8.0 | 16.1 | 0.00 | 0.00 | 0.00 | 74 | 1010.2 |
| 20260508004942 | 17 | 17 | 9.7 | 19.3 | 0.00 | 0.00 | 0.00 | 74 | 1010.2 |
| 20260508004444 | 17 | 0 | 9.7 | 19.3 | 0.00 | 0.00 | 0.00 | 73 | 1010.2 |
| 20260508003941 | 18 | 355 | 8.0 | 17.7 | 0.00 | 0.00 | 0.00 | 73 | 1010.2 |
| 20260508001937 | 18 | 311 | 11.3 | 22.5 | 0.00 | 0.00 | 0.00 | 73 | 1010.2 |
| 20260508001433 | 18 | 321 | 11.3 | 22.5 | 0.00 | 0.00 | 0.00 | 72 | 1010.2 |
| 20260508000930 | 18 | 340 | 11.3 | 22.5 | 0.00 | 0.00 | 0.00 | 72 | 1010.1 |
| 20260508000434 | 18 | 355 | 9.7 | 22.5 | 0.00 | 0.00 | 0.00 | 73 | 1010.1 |
| 20260507235935 | 18 | 315 | 9.7 | 24.1 | 0.00 | 0.00 | 0.00 | 72 | 1010.1 |
| 20260507235428 | 18 | 342 | 9.7 | 24.1 | 0.00 | 0.00 | 0.00 | 72 | 1010.1 |
| 20260507234925 | 18 | 277 | 8.0 | 20.9 | 0.00 | 0.00 | 0.00 | 72 | 1010.1 |
| 20260507234426 | 18 | 5 | 8.0 | 20.9 | 0.00 | 0.00 | 0.00 | 71 | 1010.1 |
| 20260507233921 | 18 | 323 | 8.0 | 20.9 | 0.00 | 0.00 | 0.00 | 71 | 1010.1 |
| 20260507233421 | 19 | 321 | 8.0 | 22.5 | 0.00 | 0.00 | 0.00 | 71 | 1010.1 |
| 20260507232918 | 18 | 11 | 8.0 | 22.5 | 0.00 | 0.00 | 0.00 | 73 | 1010.1 |
| 20260507232415 | 18 | 331 | 8.0 | 20.9 | 0.00 | 0.00 | 0.00 | 73 | 1010.2 |
| 20260507231916 | 18 | 325 | 9.7 | 22.5 | 0.00 | 0.00 | 0.00 | 75 | 1010.2 |
| 20260507231411 | 18 | 309 | 8.0 | 22.5 | 0.00 | 0.00 | 0.00 | 74 | 1010.2 |
| 20260507230911 | 18 | 325 | 9.7 | 22.5 | 0.00 | 0.00 | 0.00 | 73 | 1010.2 |
| 20260507230412 | 18 | 333 | 9.7 | 22.5 | 0.00 | 0.00 | 0.00 | 71 | 1010.2 |
| 20260507225408 | 19 | 313 | 8.0 | 17.7 | 0.00 | 0.00 | 0.00 | 72 | 1010.2 |
| 20260507224910 | 19 | 321 | 9.7 | 22.5 | 0.00 | 0.00 | 0.00 | 72 | 1010.2 |
| 20260507224406 | 19 | 338 | 9.7 | 22.5 | 0.00 | 0.00 | 0.00 | 71 | 1010.2 |
| 20260507223906 | 19 | 314 | 9.7 | 19.3 | 0.00 | 0.00 | 0.00 | 72 | 1010.2 |
| 20260507222900 | 19 | 292 | 9.7 | 19.3 | 0.00 | 0.00 | 0.00 | 72 | 1010.2 |
| 20260507222401 | 19 | 318 | 9.7 | 20.9 | 0.00 | 0.00 | 0.00 | 71 | 1010.2 |
| 20260507221356 | 20 | 317 | 9.7 | 20.9 | 0.00 | 0.00 | 0.00 | 72 | 1010.3 |
| 20260507215348 | 19 | 315 | 11.3 | 25.7 | 0.00 | 0.00 | 0.00 | 72 | 1010.7 |
| 20260507214852 | 19 | 314 | 12.9 | 22.5 | 0.00 | 0.00 | 0.00 | 73 | 1010.7 |
| 20260507214352 | 19 | 300 | 11.3 | 22.5 | 0.00 | 0.00 | 0.00 | 73 | 1010.8 |
| 20260507213846 | 19 | 309 | 11.3 | 22.5 | 0.00 | 0.00 | 0.00 | 72 | 1010.8 |
| 20260507213344 | 20 | 300 | 11.3 | 22.5 | 0.00 | 0.00 | 0.00 | 71 | 1010.8 |
| 20260507212343 | 20 | 320 | 11.3 | 24.1 | 0.00 | 0.00 | 0.00 | 72 | 1011.0 |
| 20260507211341 | 20 | 313 | 9.7 | 22.5 | 0.00 | 0.00 | 0.00 | 70 | 1011.0 |
| 20260507210841 | 20 | 337 | 9.7 | 22.5 | 0.00 | 0.00 | 0.00 | 71 | 1011.0 |
| 20260507210335 | 20 | 323 | 11.3 | 22.5 | 0.00 | 0.00 | 0.00 | 71 | 1011.0 |
| 20260507205834 | 20 | 335 | 11.3 | 22.5 | 0.00 | 0.00 | 0.00 | 71 | 1011.1 |
| 20260507205334 | 20 | 286 | 9.7 | 22.5 | 0.00 | 0.00 | 0.00 | 70 | 1011.1 |
| 20260507204831 | 20 | 311 | 9.7 | 20.9 | 0.00 | 0.00 | 0.00 | 72 | 1011.1 |
| 20260507202832 | 19 | 311 | 9.7 | 22.5 | 0.00 | 0.00 | 0.00 | 72 | 1011.2 |
| 20260507202329 | 19 | 308 | 9.7 | 22.5 | 0.00 | 0.00 | 0.00 | 72 | 1011.2 |
| 20260507201325 | 19 | 346 | 9.7 | 19.3 | 0.00 | 0.00 | 0.00 | 73 | 1011.2 |
| 20260507200326 | 19 | 315 | 9.7 | 19.3 | 0.00 | 0.00 | 0.00 | 73 | 1011.2 |
| 20260507194819 | 19 | 311 | 11.3 | 19.3 | 0.00 | 0.00 | 0.00 | 72 | 1011.2 |
| 20260507193817 | 19 | 348 | 9.7 | 19.3 | 0.00 | 0.00 | 0.00 | 71 | 1011.2 |
| 20260507193316 | 20 | 312 | 9.7 | 19.3 | 0.00 | 0.00 | 0.00 | 71 | 1011.2 |
| 20260507192819 | 20 | 300 | 8.0 | 19.3 | 0.00 | 0.00 | 0.00 | 72 | 1011.2 |
| 20260507192317 | 20 | 324 | 8.0 | 19.3 | 0.00 | 0.00 | 0.00 | 72 | 1011.2 |
| 20260507191812 | 20 | 331 | 9.7 | 19.3 | 0.00 | 0.00 | 0.00 | 72 | 1011.2 |
| 20260507191310 | 20 | 355 | 9.7 | 19.3 | 0.00 | 0.00 | 0.00 | 71 | 1011.2 |
| 20260507190808 | 20 | 328 | 8.0 | 17.7 | 0.00 | 0.00 | 0.00 | 71 | 1011.2 |
| 20260507190308 | 20 | 331 | 9.7 | 22.5 | 0.00 | 0.00 | 0.00 | 74 | 1011.2 |
| 20260507185809 | 19 | 11 | 9.7 | 22.5 | 0.00 | 0.00 | 0.00 | 72 | 1011.3 |
| 20260507185305 | 19 | 336 | 9.7 | 20.9 | 0.00 | 0.00 | 0.00 | 72 | 1011.3 |
| 20260507184804 | 20 | 11 | 9.7 | 17.7 | 0.00 | 0.00 | 0.00 | 71 | 1011.3 |
| 20260507184305 | 20 | 318 | 9.7 | 17.7 | 0.00 | 0.00 | 0.00 | 71 | 1011.3 |
| 20260507183801 | 20 | 330 | 9.7 | 16.1 | 0.00 | 0.00 | 0.00 | 72 | 1011.3 |
| 20260507183300 | 20 | 313 | 8.0 | 19.3 | 0.00 | 0.00 | 0.00 | 71 | 1011.3 |
| 20260507182758 | 21 | 326 | 8.0 | 19.3 | 0.00 | 0.00 | 0.00 | 70 | 1011.3 |
| 20260507182307 | 20 | 22 | 8.0 | 16.1 | 0.00 | 0.00 | 0.00 | 70 | 1011.3 |
| 20260507181802 | 21 | 311 | 8.0 | 16.1 | 0.00 | 0.00 | 0.00 | 69 | 1011.3 |
| 20260507181256 | 21 | 317 | 6.4 | 14.5 | 0.00 | 0.00 | 0.00 | 70 | 1011.3 |
| 20260507180754 | 21 | 336 | 4.8 | 12.9 | 0.00 | 0.00 | 0.00 | 70 | 1011.3 |
| 20260507180251 | 21 | 334 | 4.8 | 14.5 | 0.00 | 0.00 | 0.00 | 70 | 1011.3 |
| 20260507175753 | 21 | 338 | 6.4 | 14.5 | 0.00 | 0.00 | 0.00 | 71 | 1011.3 |
| 20260507175250 | 21 | 317 | 6.4 | 14.5 | 0.00 | 0.00 | 0.00 | 71 | 1011.3 |
| 20260507174248 | 21 | 336 | 6.4 | 14.5 | 0.00 | 0.00 | 0.00 | 72 | 1011.4 |
| 20260507173246 | 20 | 327 | 4.8 | 12.9 | 0.00 | 0.00 | 0.00 | 74 | 1011.4 |
| 20260507172750 | 20 | 325 | 4.8 | 12.9 | 0.00 | 0.00 | 0.00 | 73 | 1011.7 |
| 20260507172244 | 20 | 317 | 4.8 | 11.3 | 0.00 | 0.00 | 0.00 | 75 | 1011.7 |
| 20260507171744 | 19 | 329 | 4.8 | 11.3 | 0.00 | 0.00 | 0.00 | 76 | 1011.7 |
| 20260507171241 | 19 | 339 | 4.8 | 11.3 | 0.00 | 0.00 | 0.00 | 76 | 1011.7 |
| 20260507170731 | 18 | 20 | 4.8 | 11.3 | 0.00 | 0.00 | 0.00 | 79 | 1011.7 |
| 20260507170230 | 18 | 11 | 6.4 | 11.3 | 0.00 | 0.00 | 0.00 | 80 | 1011.7 |
| 20260507165724 | 17 | 355 | 6.4 | 12.9 | 0.00 | 0.00 | 0.00 | 81 | 1011.8 |
| 20260507165224 | 17 | 337 | 6.4 | 12.9 | 0.00 | 0.00 | 0.00 | 81 | 1011.8 |
| 20260507164722 | 17 | 12 | 4.8 | 12.9 | 0.00 | 0.00 | 0.00 | 84 | 1011.8 |
| 20260507164222 | 16 | 355 | 6.4 | 14.5 | 0.00 | 0.00 | 0.00 | 85 | 1011.8 |
| 20260507163719 | 16 | 342 | 6.4 | 14.5 | 0.00 | 0.00 | 0.00 | 85 | 1011.8 |
| 20260507163215 | 16 | 321 | 4.8 | 16.1 | 0.00 | 0.00 | 0.00 | 87 | 1011.8 |
| 20260507162714 | 15 | 5 | 4.8 | 14.5 | 0.00 | 0.00 | 0.00 | 88 | 1011.8 |
| 20260507162210 | 15 | 0 | 6.4 | 14.5 | 0.00 | 0.00 | 0.00 | 89 | 1011.8 |
| 20260507161713 | 15 | 355 | 6.4 | 12.9 | 0.00 | 0.00 | 0.00 | 89 | 1011.8 |
| 20260507161208 | 15 | 347 | 6.4 | 12.9 | 0.00 | 0.00 | 0.00 | 91 | 1011.8 |
| 20260507160703 | 15 | 344 | 6.4 | 12.9 | 0.00 | 0.00 | 0.00 | 92 | 1011.8 |
| 20260507160201 | 14 | 322 | 6.4 | 12.9 | 0.00 | 0.00 | 0.00 | 94 | 1011.8 |
| 20260507155700 | 13 | 331 | 6.4 | 16.1 | 0.00 | 0.00 | 0.00 | 95 | 1011.9 |
| 20260507155159 | 13 | 313 | 6.4 | 16.1 | 0.00 | 0.00 | 0.00 | 95 | 1011.8 |
| 20260507154654 | 13 | 331 | 6.4 | 14.5 | 0.00 | 0.00 | 0.00 | 95 | 1011.8 |
| 20260507154156 | 13 | 304 | 4.8 | 14.5 | 0.00 | 0.00 | 0.00 | 96 | 1011.7 |
| 20260507153655 | 13 | 313 | 6.4 | 12.9 | 0.00 | 0.00 | 0.00 | 96 | 1011.7 |
| 20260507153150 | 13 | 333 | 6.4 | 12.9 | 0.00 | 0.00 | 0.00 | 96 | 1011.7 |
| 20260507152652 | 13 | 333 | 4.8 | 12.9 | 0.00 | 0.00 | 0.00 | 96 | 1011.7 |
| 20260507151654 | 12 | 336 | 4.8 | 11.3 | 0.00 | 0.00 | 0.00 | 97 | 1011.7 |
| 20260507151149 | 12 | 325 | 4.8 | 11.3 | 0.00 | 0.00 | 0.00 | 96 | 1011.7 |
| 20260507150649 | 12 | 333 | 3.2 | 11.3 | 0.00 | 0.00 | 0.00 | 96 | 1011.7 |
| 20260507150147 | 12 | 339 | 4.8 | 14.5 | 0.00 | 0.00 | 0.00 | 96 | 1011.7 |
| 20260507145645 | 12 | 324 | 4.8 | 14.5 | 0.00 | 0.00 | 0.00 | 96 | 1011.7 |
| 20260507145146 | 12 | 313 | 4.8 | 12.9 | 0.00 | 0.00 | 0.00 | 96 | 1011.7 |
| 20260507144645 | 12 | 326 | 6.4 | 12.9 | 0.00 | 0.00 | 0.00 | 96 | 1011.7 |
| 20260507144146 | 12 | 317 | 4.8 | 12.9 | 0.00 | 0.00 | 0.00 | 96 | 1011.8 |
| 20260507143644 | 12 | 355 | 4.8 | 12.9 | 0.00 | 0.00 | 0.00 | 96 | 1011.8 |
| 20260507143138 | 11 | 335 | 6.4 | 12.9 | 0.00 | 0.00 | 0.00 | 96 | 1011.8 |
| 20260507142636 | 11 | 317 | 4.8 | 12.9 | 0.00 | 0.00 | 0.00 | 96 | 1011.6 |
| 20260507142143 | 11 | 326 | 3.2 | 9.7 | 0.00 | 0.00 | 0.00 | 96 | 1011.6 |
| 20260507141635 | 11 | 331 | 4.8 | 12.9 | 0.00 | 0.00 | 0.00 | 96 | 1011.6 |
| 20260507141135 | 11 | 331 | 4.8 | 12.9 | 0.00 | 0.00 | 0.00 | 96 | 1011.6 |
| 20260507140637 | 11 | 329 | 4.8 | 9.7 | 0.00 | 0.00 | 0.00 | 96 | 1011.6 |
| 20260507140136 | 11 | 329 | 3.2 | 9.7 | 0.00 | 0.00 | 0.00 | 96 | 1011.6 |
| 20260507135635 | 11 | 331 | 3.2 | 8.0 | 0.00 | 0.00 | 0.00 | 96 | 1011.4 |
| 20260507135131 | 11 | 331 | 4.8 | 8.0 | 0.00 | 0.00 | 0.00 | 95 | 1011.4 |
| 20260507134633 | 11 | 331 | 3.2 | 9.7 | 0.00 | 0.00 | 0.00 | 95 | 1011.4 |
| 20260507133625 | 11 | 331 | 3.2 | 9.7 | 0.00 | 0.00 | 0.00 | 95 | 1011.4 |
| 20260507133126 | 11 | 308 | 1.6 | 6.4 | 0.00 | 0.00 | 0.00 | 95 | 1011.4 |
| 20260507132626 | 11 | 344 | 1.6 | 6.4 | 0.00 | 0.00 | 0.00 | 95 | 1011.4 |
| 20260507131621 | 11 | 344 | 4.8 | 11.3 | 0.00 | 0.00 | 0.00 | 95 | 1011.4 |
| 20260507131120 | 11 | 344 | 3.2 | 11.3 | 0.00 | 0.00 | 0.00 | 95 | 1011.1 |
| 20260507130118 | 11 | 348 | 3.2 | 9.7 | 0.00 | 0.00 | 0.00 | 95 | 1011.1 |
| 20260507125616 | 11 | 348 | 3.2 | 9.7 | 0.00 | 0.00 | 0.00 | 95 | 1011.1 |
| 20260507125116 | 11 | 351 | 3.2 | 9.7 | 0.00 | 0.00 | 0.00 | 95 | 1011.1 |
| 20260507124615 | 11 | 355 | 3.2 | 9.7 | 0.00 | 0.00 | 0.00 | 95 | 1011.1 |
| 20260507124112 | 11 | 321 | 3.2 | 9.7 | 0.00 | 0.00 | 0.00 | 95 | 1011.2 |
| 20260507123609 | 11 | 320 | 3.2 | 9.7 | 0.00 | 0.00 | 0.00 | 95 | 1011.2 |
| 20260507123107 | 11 | 319 | 3.2 | 8.0 | 0.00 | 0.00 | 0.00 | 95 | 1011.2 |
| 20260507122605 | 11 | 319 | 3.2 | 8.0 | 0.00 | 0.00 | 0.00 | 95 | 1011.2 |
| 20260507122108 | 11 | 318 | 3.2 | 9.7 | 0.00 | 0.00 | 0.00 | 95 | 1011.2 |
| 20260507121102 | 11 | 319 | 1.6 | 6.4 | 0.00 | 0.00 | 0.00 | 95 | 1011.3 |
| 20260507120602 | 11 | 319 | 3.2 | 6.4 | 0.00 | 0.00 | 0.00 | 95 | 1011.3 |
| 20260507115602 | 11 | 318 | 0.0 | 3.2 | 0.00 | 0.00 | 0.00 | 94 | 1011.3 |
| 20260507115103 | 11 | 319 | 0.0 | 3.2 | 0.00 | 0.00 | 0.00 | 94 | 1011.3 |
| 20260507114601 | 11 | 319 | 1.6 | 4.8 | 0.00 | 0.00 | 0.00 | 95 | 1011.3 |
| 20260507114053 | 11 | 318 | 1.6 | 6.4 | 0.00 | 0.00 | 0.00 | 94 | 1011.4 |
| 20260507113550 | 11 | 319 | 1.6 | 6.4 | 0.00 | 0.00 | 0.00 | 95 | 1011.4 |
| 20260507113045 | 11 | 319 | 1.6 | 4.8 | 0.00 | 0.00 | 0.00 | 95 | 1011.4 |
| 20260507112540 | 11 | 319 | 1.6 | 4.8 | 0.00 | 0.00 | 0.00 | 94 | 1011.5 |
| 20260507111540 | 11 | 319 | 3.2 | 6.4 | 0.00 | 0.00 | 0.00 | 94 | 1011.5 |
| 20260507111036 | 11 | 319 | 3.2 | 6.4 | 0.00 | 0.00 | 0.00 | 94 | 1011.6 |
| 20260507110543 | 11 | 318 | 3.2 | 6.4 | 0.00 | 0.00 | 0.00 | 94 | 1011.6 |
| 20260507110037 | 11 | 318 | 3.2 | 8.0 | 0.00 | 0.00 | 0.00 | 94 | 1011.6 |
| 20260507105534 | 11 | 318 | 3.2 | 8.0 | 0.00 | 0.00 | 0.00 | 94 | 1011.6 |
| 20260507105034 | 11 | 318 | 3.2 | 9.7 | 0.00 | 0.00 | 0.00 | 94 | 1011.6 |
| 20260507104532 | 11 | 319 | 3.2 | 9.7 | 0.00 | 0.00 | 0.00 | 94 | 1011.6 |
| 20260507104029 | 11 | 309 | 1.6 | 6.4 | 0.00 | 0.00 | 0.00 | 94 | 1011.8 |
| 20260507103524 | 11 | 309 | 3.2 | 9.7 | 0.00 | 0.00 | 0.00 | 94 | 1011.8 |
| 20260507103027 | 11 | 309 | 3.2 | 9.7 | 0.00 | 0.00 | 0.00 | 94 | 1011.8 |
| 20260507102021 | 11 | 290 | 1.6 | 4.8 | 0.00 | 0.00 | 0.00 | 94 | 1012.1 |
| 20260507101521 | 11 | 290 | 1.6 | 8.0 | 0.00 | 0.00 | 0.00 | 94 | 1012.1 |
| 20260507101022 | 11 | 290 | 1.6 | 8.0 | 0.00 | 0.00 | 0.00 | 94 | 1012.0 |
| 20260507100019 | 11 | 315 | 0.0 | 3.2 | 0.00 | 0.00 | 0.00 | 93 | 1012.0 |
| 20260507094517 | 11 | 315 | 0.0 | 3.2 | 0.00 | 0.00 | 0.00 | 93 | 1012.0 |
| 20260507094015 | 11 | 315 | 0.0 | 3.2 | 0.00 | 0.00 | 0.00 | 93 | 1012.1 |
| 20260507093511 | 11 | 315 | 0.0 | 1.6 | 0.00 | 0.00 | 0.00 | 93 | 1012.1 |
| 20260507092513 | 12 | 315 | 0.0 | 4.8 | 0.00 | 0.00 | 0.00 | 93 | 1012.1 |
| 20260507092009 | 12 | 315 | 0.0 | 4.8 | 0.00 | 0.00 | 0.00 | 93 | 1012.1 |
| 20260507091007 | 12 | 315 | 3.2 | 8.0 | 0.00 | 0.00 | 0.00 | 93 | 1012.4 |
| 20260507090505 | 12 | 315 | 3.2 | 8.0 | 0.00 | 0.00 | 0.00 | 93 | 1012.4 |
| 20260507090005 | 12 | 320 | 3.2 | 6.4 | 0.00 | 0.00 | 0.00 | 93 | 1012.4 |
| 20260507085459 | 12 | 320 | 3.2 | 8.0 | 0.00 | 0.00 | 0.00 | 92 | 1012.6 |
| 20260507085005 | 12 | 320 | 3.2 | 8.0 | 0.00 | 0.00 | 0.00 | 92 | 1012.6 |
| 20260507083957 | 12 | 331 | 3.2 | 8.0 | 0.00 | 0.00 | 0.00 | 92 | 1012.6 |
| 20260507083449 | 12 | 333 | 1.6 | 4.8 | 0.00 | 0.00 | 0.00 | 92 | 1012.6 |
| 20260507082445 | 12 | 333 | 1.6 | 8.0 | 0.00 | 0.00 | 0.00 | 92 | 1012.7 |
| 20260507081943 | 12 | 333 | 3.2 | 8.0 | 0.00 | 0.00 | 0.00 | 92 | 1012.7 |
| 20260507081438 | 12 | 333 | 3.2 | 9.7 | 0.00 | 0.00 | 0.00 | 91 | 1012.7 |
| 20260507080940 | 13 | 333 | 3.2 | 9.7 | 0.00 | 0.00 | 0.00 | 91 | 1012.9 |
| 20260507080437 | 13 | 336 | 1.6 | 4.8 | 0.00 | 0.00 | 0.00 | 91 | 1012.9 |
| 20260507075935 | 13 | 336 | 1.6 | 4.8 | 0.00 | 0.00 | 0.00 | 91 | 1012.9 |
| 20260507075430 | 13 | 336 | 0.0 | 3.2 | 0.00 | 0.00 | 0.00 | 91 | 1013.1 |
| 20260507074927 | 13 | 336 | 0.0 | 3.2 | 0.00 | 0.00 | 0.00 | 91 | 1013.1 |
| 20260507074427 | 13 | 336 | 1.6 | 4.8 | 0.00 | 0.00 | 0.00 | 91 | 1013.1 |
| 20260507073927 | 13 | 336 | 1.6 | 4.8 | 0.00 | 0.00 | 0.00 | 91 | 1013.1 |
| 20260507073422 | 13 | 336 | 1.6 | 4.8 | 0.00 | 0.00 | 0.00 | 91 | 1013.1 |
| 20260507072922 | 13 | 336 | 1.6 | 6.4 | 0.00 | 0.00 | 0.00 | 91 | 1013.1 |
| 20260507072422 | 13 | 336 | 1.6 | 6.4 | 0.00 | 0.00 | 0.00 | 91 | 1013.1 |
| 20260507070916 | 13 | 336 | 3.2 | 6.4 | 0.00 | 0.00 | 0.00 | 91 | 1013.1 |
| 20260507070423 | 13 | 336 | 3.2 | 6.4 | 0.00 | 0.00 | 0.00 | 91 | 1013.1 |
| 20260507065916 | 13 | 336 | 1.6 | 6.4 | 0.00 | 0.00 | 0.00 | 91 | 1013.1 |
| 20260507065410 | 13 | 336 | 1.6 | 6.4 | 0.00 | 0.00 | 0.00 | 91 | 1013.1 |
| 20260507064905 | 13 | 336 | 3.2 | 6.4 | 0.00 | 0.00 | 0.00 | 91 | 1013.1 |
| 20260507064406 | 13 | 336 | 3.2 | 6.4 | 0.00 | 0.00 | 0.00 | 90 | 1013.1 |
| 20260507063905 | 13 | 336 | 1.6 | 6.4 | 0.00 | 0.00 | 0.00 | 90 | 1013.2 |
| 20260507063405 | 13 | 336 | 3.2 | 8.0 | 0.00 | 0.00 | 0.00 | 90 | 1013.2 |
| 20260507062906 | 13 | 336 | 3.2 | 8.0 | 0.00 | 0.00 | 0.00 | 90 | 1013.2 |